Location: Emory University Observatory
(33.7903°N, 84.3267°W)
Time: 02:15:21
(UTC-04:00)

Vanguard 3 - All Passes

Search period start: 23 October 2017 00:00
Search period end: 02 November 2017 00:00
Orbit: 510 x 3263 km, 33.3° (Epoch: 22 October)

Date Brightness Start Highest point End Pass type
(mag) Time Alt. Az. Time Alt. Az. Time Alt. Az.
23 Oct - 02:02:46 10° SSW 02:18:48 33° SSE 02:31:04 10° E visible
23 Oct - 04:16:28 10° SW 04:34:05 62° SSE 04:44:45 10° E visible
23 Oct - 06:34:03 10° W 06:48:30 86° S 06:56:18 10° E visible
23 Oct - 08:51:43 10° W 09:01:34 74° SSW 09:07:03 10° ESE daylight
23 Oct - 11:08:03 10° W 11:12:34 21° SW 11:15:57 10° SSE daylight
24 Oct - 00:49:37 10° S 01:02:54 22° SE 01:14:29 10° E visible
24 Oct - 03:00:12 10° SW 03:18:20 50° SSE 03:30:44 10° E visible
24 Oct - 05:16:31 10° WSW 05:33:28 79° SSE 05:43:04 10° E visible
24 Oct - 07:34:48 10° W 07:47:28 86° S 07:54:16 10° E daylight
24 Oct - 09:51:47 10° W 09:59:37 44° SSW 10:04:21 10° SE daylight
24 Oct - 23:40:23 10° SSE 23:47:06 13° SE 23:53:37 10° ESE night (unlit)
25 Oct - 01:45:05 10° SSW 02:02:19 38° SSE 02:15:51 10° E visible
25 Oct - 03:59:18 10° WSW 04:17:54 68° SSE 04:29:29 10° E visible
25 Oct - 06:17:17 10° W 06:32:46 88° S 06:41:13 10° E visible
25 Oct - 08:35:17 10° W 08:46:05 69° SSW 08:52:01 10° ESE daylight
25 Oct - 10:52:25 10° W 10:56:59 19° SW 11:00:24 10° S daylight
26 Oct - 00:31:34 10° S 00:46:20 27° SE 00:59:31 10° E visible
26 Oct - 02:42:55 10° SW 03:01:53 56° SSE 03:15:20 10° E visible
26 Oct - 04:59:35 10° WSW 05:17:28 83° S 05:27:51 10° E visible
26 Oct - 07:18:08 10° W 07:31:51 84° S 07:39:14 10° ESE visible
26 Oct - 09:35:36 10° W 09:44:03 40° SSW 09:49:09 10° SE daylight
26 Oct - 23:20:47 10° SSE 23:30:34 16° SE 23:40:10 10° ESE night (unlit)
27 Oct - 01:27:41 10° SSW 01:45:41 44° SSE 02:00:24 10° E visible
27 Oct - 03:42:15 10° WSW 04:01:36 74° SSE 04:14:06 10° E visible
27 Oct - 06:00:28 10° W 06:16:57 89° S 06:26:05 10° E visible
27 Oct - 08:18:45 10° W 08:30:29 64° SSW 08:36:54 10° ESE daylight
27 Oct - 10:36:45 10° W 10:41:18 17° SW 10:44:45 10° S daylight
28 Oct - 00:13:56 10° SSW 00:29:36 31° SE 00:44:11 10° E night (unlit)
28 Oct - 02:25:48 10° SW 02:45:20 62° SSE 02:59:49 10° E visible
28 Oct - 04:42:41 10° WSW 05:01:22 86° S 05:12:34 10° E visible
28 Oct - 07:01:24 10° W 07:16:09 82° SSW 07:24:08 10° ESE visible
28 Oct - 09:19:19 10° W 09:28:22 36° SW 09:33:51 10° SSE daylight
28 Oct - 23:02:23 10° S 23:13:53 19° SE 23:25:35 10° E visible
29 Oct - 01:10:32 10° SW 01:28:56 49° SSE 01:44:46 10° E visible
29 Oct - 03:25:20 10° WSW 03:45:12 78° SSE 03:58:39 10° E visible
29 Oct - 05:43:37 10° W 06:01:02 88° S 06:10:54 10° E visible
29 Oct - 08:02:07 10° W 08:14:46 60° SSW 08:21:44 10° SE daylight
29 Oct - 10:21:06 10° W 10:25:30 15° SW 10:28:57 10° SSW daylight
29 Oct - 23:56:39 10° SSW 00:12:46 35° SE 00:28:33 10° E visible
30 Oct - 02:08:53 10° SW 02:28:41 67° SSE 02:44:10 10° E visible
30 Oct - 04:25:49 10° W 04:45:10 88° S 04:57:14 10° E visible
30 Oct - 06:44:35 10° W 07:00:19 78° SSW 07:08:58 10° ESE visible
30 Oct - 09:02:57 10° W 09:12:34 34° SW 09:18:29 10° SSE daylight
30 Oct - 22:44:38 10° S 22:57:06 23° SE 23:10:22 10° E visible
31 Oct - 00:53:36 10° SW 01:12:06 54° SSE 01:28:58 10° E visible
31 Oct - 03:08:31 10° WSW 03:28:43 81° SSE 03:43:06 10° E visible
31 Oct - 05:26:46 10° W 05:45:00 87° S 05:55:38 10° E visible
31 Oct - 07:45:25 10° WNW 07:58:56 56° SSW 08:06:29 10° SE daylight
31 Oct - 10:05:30 10° WSW 10:09:37 14° SW 10:12:56 10° SSW daylight
31 Oct - 21:37:49 10° SE 21:41:59 11° SE 21:46:19 10° ESE visible
31 Oct - 23:39:39 10° SSW 23:55:52 40° SE 00:12:42 10° E visible
01 Nov - 01:52:08 10° WSW 02:11:57 71° SSE 02:28:25 10° E visible
01 Nov - 04:09:02 10° W 04:28:53 89° S 04:41:50 10° E visible
01 Nov - 06:27:44 10° W 06:44:21 75° SSW 06:53:43 10° ESE visible
01 Nov - 08:46:31 10° W 08:56:39 31° SW 09:03:00 10° SSE daylight
01 Nov - 22:27:21 10° S 22:40:15 26° SE 22:54:43 10° E visible
